| time (UTC) | temp F | wind direction | speed MPH | gust MPH | rain 1hr in | rain 24hr in | rain mn in | humidity % | barometer mb |
| 20260507103259 | 32 | 246 | 0.0 | 2.0 | 0.00 | 0.13 | 0.00 | 71 | 1020.6 |
| 20260507102742 | 30 | 288 | 0.0 | 3.0 | 0.00 | 0.13 | 0.00 | 76 | 1020.6 |
| 20260507101258 | 30 | 325 | 0.0 | 3.0 | 0.00 | 0.13 | 0.00 | 74 | 1020.5 |
| 20260507100734 | 30 | 259 | 0.0 | 2.0 | 0.00 | 0.13 | 0.00 | 73 | 1020.5 |
| 20260507095256 | 32 | 206 | 0.0 | 2.0 | 0.00 | 0.13 | 0.00 | 68 | 1020.5 |
| 20260507094731 | 34 | 250 | 2.0 | 4.0 | 0.00 | 0.13 | 0.00 | 65 | 1020.5 |
| 20260507093246 | 35 | 218 | 1.0 | 6.0 | 0.00 | 0.13 | 0.00 | 62 | 1020.5 |
| 20260507092732 | 37 | 245 | 4.0 | 6.0 | 0.00 | 0.13 | 0.00 | 56 | 1020.6 |
| 20260507091721 | 38 | 246 | 4.0 | 7.0 | 0.00 | 0.13 | 0.00 | 53 | 1020.5 |
| 20260507090245 | 38 | 245 | 4.0 | 13.0 | 0.00 | 0.13 | 0.00 | 54 | 1020.5 |
| 20260507085722 | 36 | 245 | 2.0 | 8.0 | 0.00 | 0.13 | 0.00 | 59 | 1020.3 |
| 20260507084727 | 33 | 269 | 2.0 | 4.0 | 0.00 | 0.13 | 0.00 | 63 | 1020.3 |
| 20260507083242 | 32 | 222 | 1.0 | 4.0 | 0.00 | 0.13 | 0.00 | 64 | 1020.6 |
| 20260507082723 | 32 | 260 | 1.0 | 4.0 | 0.00 | 0.13 | 0.00 | 65 | 1020.7 |
| 20260507081244 | 31 | 246 | 1.0 | 5.0 | 0.00 | 0.13 | 0.00 | 64 | 1020.8 |
| 20260507080243 | 31 | 321 | 3.0 | 7.0 | 0.00 | 0.13 | 0.00 | 64 | 1020.8 |
| 20260507075243 | 30 | 206 | 0.0 | 2.0 | 0.00 | 0.13 | 0.00 | 63 | 1020.8 |
| 20260507074243 | 31 | 224 | 0.0 | 2.0 | 0.00 | 0.13 | 0.00 | 61 | 1021.0 |
| 20260507073708 | 33 | 173 | 1.0 | 3.0 | 0.00 | 0.13 | 0.00 | 54 | 1021.0 |
| 20260507072224 | 33 | 260 | 1.0 | 5.0 | 0.00 | 0.13 | 0.00 | 55 | 1021.0 |
| 20260507071225 | 33 | 222 | 1.0 | 3.0 | 0.00 | 0.13 | 0.00 | 55 | 1021.0 |
| 20260507070225 | 32 | 214 | 2.0 | 6.0 | 0.00 | 0.13 | 0.00 | 58 | 1021.0 |
| 20260507065225 | 32 | 300 | 2.0 | 7.0 | 0.00 | 0.13 | 0.00 | 59 | 1021.0 |
| 20260507065137 | 33 | 250 | 2.0 | 6.0 | 0.00 | 0.13 | 0.00 | 58 | 1020.8 |
| 20260507063222 | 32 | 269 | 1.0 | 4.0 | 0.00 | 0.13 | 0.00 | 62 | 1020.8 |
| 20260507062712 | 32 | 270 | 1.0 | 5.0 | 0.00 | 0.13 | 0.00 | 63 | 1020.7 |
| 20260507061224 | 32 | 267 | 3.0 | 8.0 | 0.00 | 0.13 | 0.00 | 62 | 1020.6 |
| 20260507060223 | 33 | 248 | 3.0 | 11.0 | 0.00 | 0.13 | 0.00 | 60 | 1020.5 |
| 20260507055223 | 33 | 257 | 5.0 | 16.0 | 0.00 | 0.13 | 0.13 | 59 | 1020.5 |
| 20260507054221 | 32 | 322 | 2.0 | 10.0 | 0.00 | 0.13 | 0.13 | 60 | 1020.3 |
| 20260507053221 | 32 | 310 | 1.0 | 8.0 | 0.00 | 0.13 | 0.13 | 62 | 1020.5 |
| 20260507052222 | 32 | 260 | 1.0 | 6.0 | 0.00 | 0.13 | 0.13 | 62 | 1020.6 |
| 20260507051216 | 32 | 324 | 0.0 | 4.0 | 0.00 | 0.13 | 0.13 | 61 | 1020.5 |
| 20260507050217 | 32 | 267 | 2.0 | 8.0 | 0.00 | 0.13 | 0.13 | 61 | 1020.5 |
| 20260507045217 | 31 | 240 | 1.0 | 4.0 | 0.00 | 0.13 | 0.13 | 63 | 1020.3 |
| 20260507044214 | 30 | 322 | 0.0 | 2.0 | 0.00 | 0.13 | 0.13 | 70 | 1020.2 |
| 20260507043213 | 31 | 150 | 0.0 | 2.0 | 0.00 | 0.13 | 0.13 | 68 | 1020.1 |
| 20260507042651 | 32 | 39 | 0.0 | 2.0 | 0.00 | 0.13 | 0.13 | 64 | 1020.1 |
| 20260507041210 | 33 | 1 | 4.0 | 12.0 | 0.00 | 0.13 | 0.13 | 58 | 1019.8 |
| 20260507040209 | 33 | 225 | 4.0 | 9.0 | 0.00 | 0.13 | 0.13 | 60 | 1019.8 |
| 20260507035645 | 33 | 311 | 4.0 | 14.0 | 0.00 | 0.13 | 0.13 | 61 | 1019.8 |
| 20260507034209 | 34 | 227 | 5.0 | 15.0 | 0.00 | 0.13 | 0.13 | 62 | 1019.6 |
| 20260507034121 | 34 | 270 | 3.0 | 15.0 | 0.00 | 0.13 | 0.13 | 64 | 1019.7 |
| 20260507032208 | 33 | 276 | 3.0 | 10.0 | 0.00 | 0.13 | 0.13 | 65 | 1019.7 |
| 20260507031207 | 33 | 249 | 3.0 | 11.0 | 0.00 | 0.13 | 0.13 | 68 | 1019.6 |
| 20260507030209 | 33 | 253 | 2.0 | 8.0 | 0.00 | 0.13 | 0.13 | 72 | 1019.6 |
| 20260507025204 | 31 | 214 | 1.0 | 7.0 | 0.00 | 0.13 | 0.13 | 78 | 1019.5 |
| 20260507024204 | 31 | 218 | 1.0 | 4.0 | 0.00 | 0.13 | 0.13 | 82 | 1019.3 |
| 20260507023205 | 29 | 204 | 0.0 | 6.0 | 0.00 | 0.13 | 0.13 | 91 | 1019.2 |
| 20260507022204 | 28 | 329 | 0.0 | 1.0 | 0.00 | 0.13 | 0.13 | 92 | 1019.1 |
| 20260507021647 | 29 | 211 | 0.0 | 1.0 | 0.01 | 0.13 | 0.13 | 91 | 1019.2 |
| 20260507020202 | 30 | 338 | 0.0 | 1.0 | 0.01 | 0.13 | 0.13 | 91 | 1019.1 |
| 20260507015203 | 30 | 337 | 0.0 | 2.0 | 0.01 | 0.13 | 0.13 | 90 | 1019.0 |
| 20260507014202 | 31 | 131 | 0.0 | 1.0 | 0.01 | 0.13 | 0.13 | 90 | 1019.1 |
| 20260507013201 | 32 | 112 | 0.0 | 1.0 | 0.01 | 0.13 | 0.13 | 90 | 1019.1 |
| 20260507012200 | 32 | 114 | 0.0 | 1.0 | 0.01 | 0.13 | 0.13 | 90 | 1019.1 |
| 20260507011200 | 32 | 114 | 0.0 | 1.0 | 0.01 | 0.12 | 0.12 | 90 | 1019.1 |
| 20260507010636 | 32 | 114 | 0.0 | 2.0 | 0.01 | 0.12 | 0.12 | 89 | 1019.1 |
| 20260507005159 | 33 | 53 | 0.0 | 3.0 | 0.01 | 0.12 | 0.12 | 89 | 1019.0 |
| 20260507004641 | 33 | 124 | 0.0 | 2.0 | 0.01 | 0.12 | 0.12 | 88 | 1019.1 |
| 20260507003200 | 33 | 118 | 0.0 | 2.0 | 0.02 | 0.12 | 0.12 | 88 | 1019.0 |
| 20260507002200 | 33 | 34 | 1.0 | 3.0 | 0.02 | 0.12 | 0.12 | 86 | 1019.1 |
| 20260507001200 | 34 | 179 | 0.0 | 2.0 | 0.01 | 0.11 | 0.11 | 86 | 1019.0 |
| 20260507000155 | 33 | 295 | 0.0 | 1.0 | 0.02 | 0.11 | 0.11 | 87 | 1019.1 |
| 20260506235146 | 33 | 106 | 1.0 | 3.0 | 0.02 | 0.11 | 0.11 | 87 | 1019.0 |
| 20260506234141 | 33 | 43 | 1.0 | 4.0 | 0.03 | 0.11 | 0.11 | 85 | 1019.0 |
| 20260506233141 | 33 | 56 | 1.0 | 4.0 | 0.03 | 0.10 | 0.10 | 87 | 1019.0 |
| 20260506232142 | 32 | 14 | 2.0 | 6.0 | 0.03 | 0.10 | 0.10 | 85 | 1019.0 |
| 20260506231141 | 33 | 33 | 1.0 | 5.0 | 0.04 | 0.10 | 0.10 | 84 | 1019.0 |
| 20260506230142 | 32 | 100 | 1.0 | 4.0 | 0.03 | 0.09 | 0.09 | 85 | 1019.0 |
| 20260506225141 | 32 | 105 | 0.0 | 4.0 | 0.04 | 0.09 | 0.09 | 85 | 1019.0 |
| 20260506224141 | 32 | 37 | 1.0 | 5.0 | 0.04 | 0.08 | 0.08 | 84 | 1019.1 |
| 20260506223137 | 32 | 99 | 1.0 | 6.0 | 0.03 | 0.07 | 0.07 | 84 | 1019.1 |
| 20260506222137 | 32 | 14 | 0.0 | 3.0 | 0.04 | 0.07 | 0.07 | 83 | 1019.2 |
| 20260506221137 | 32 | 46 | 1.0 | 4.0 | 0.04 | 0.06 | 0.06 | 84 | 1019.5 |
| 20260506220607 | 32 | 41 | 1.0 | 4.0 | 0.05 | 0.06 | 0.06 | 82 | 1019.3 |
| 20260506215618 | 33 | 16 | 1.0 | 4.0 | 0.04 | 0.05 | 0.05 | 80 | 1019.5 |
| 20260506214133 | 34 | 29 | 0.0 | 0.0 | 0.04 | 0.04 | 0.04 | 79 | 1019.3 |
| 20260506213133 | 34 | 136 | 0.0 | 0.0 | 0.04 | 0.04 | 0.04 | 78 | 1019.3 |
| 20260506212127 | 33 | 134 | 0.0 | 0.0 | 0.03 | 0.03 | 0.03 | 78 | 1019.6 |
| 20260506211602 | 33 | 9 | 0.0 | 0.0 | 0.02 | 0.02 | 0.02 | 77 | 1019.6 |
| 20260506210128 | 33 | 37 | 0.0 | 0.0 | 0.01 | 0.01 | 0.01 | 78 | 1019.7 |
| 20260506205127 | 33 | 162 | 0.0 | 0.0 | 0.01 | 0.01 | 0.01 | 80 | 1019.8 |
| 20260506204127 | 31 | 108 | 0.0 | 0.0 | 0.00 | 0.00 | 0.00 | 81 | 1020.0 |
| 20260506203128 | 32 | 31 | 0.0 | 0.0 | 0.00 | 0.00 | 0.00 | 80 | 1020.1 |
| 20260506202127 | 31 | 47 | 0.0 | 0.0 | 0.00 | 0.00 | 0.00 | 81 | 1020.1 |
| 20260506201122 | 31 | 41 | 0.0 | 0.0 | 0.00 | 0.00 | 0.00 | 81 | 1020.1 |
| 20260506200602 | 31 | 6 | 0.0 | 0.0 | 0.00 | 0.00 | 0.00 | 82 | 1020.1 |
| 20260506195122 | 30 | 123 | 0.0 | 0.0 | 0.00 | 0.00 | 0.00 | 82 | 1020.1 |
| 20260506194553 | 30 | 83 | 0.0 | 0.0 | 0.00 | 0.00 | 0.00 | 83 | 1020.2 |
| 20260506193117 | 30 | 108 | 0.0 | 0.0 | 0.00 | 0.00 | 0.00 | 84 | 1020.3 |
| 20260506192117 | 29 | 56 | 0.0 | 0.0 | 0.00 | 0.00 | 0.00 | 84 | 1020.3 |
| 20260506191113 | 29 | 132 | 0.0 | 0.0 | 0.00 | 0.00 | 0.00 | 83 | 1020.3 |
| 20260506190110 | 29 | 101 | 0.0 | 0.0 | 0.00 | 0.00 | 0.00 | 81 | 1020.3 |
| 20260506185044 | 30 | 93 | 0.0 | 0.0 | 0.00 | 0.00 | 0.00 | 84 | 1020.3 |
| 20260506184533 | 30 | 23 | 0.0 | 0.0 | 0.00 | 0.00 | 0.00 | 82 | 1020.6 |
| 20260506183045 | 30 | 312 | 0.0 | 0.0 | 0.00 | 0.00 | 0.00 | 84 | 1020.6 |
| 20260506182043 | 30 | 318 | 0.0 | 0.0 | 0.00 | 0.00 | 0.00 | 86 | 1020.6 |
| 20260506181043 | 29 | 353 | 0.0 | 0.0 | 0.00 | 0.00 | 0.00 | 86 | 1020.6 |
| 20260506180044 | 29 | 132 | 0.0 | 0.0 | 0.00 | 0.00 | 0.00 | 85 | 1020.6 |
| 20260506175042 | 29 | 298 | 0.0 | 0.0 | 0.00 | 0.01 | 0.00 | 86 | 1020.5 |
| 20260506174041 | 28 | 52 | 0.0 | 0.0 | 0.00 | 0.01 | 0.00 | 88 | 1020.6 |
| 20260506173038 | 28 | 349 | 0.0 | 0.0 | 0.00 | 0.01 | 0.00 | 86 | 1020.7 |
| 20260506172036 | 27 | 37 | 0.0 | 0.0 | 0.00 | 0.01 | 0.00 | 90 | 1020.5 |
| 20260506171517 | 26 | 18 | 0.0 | 0.0 | 0.00 | 0.02 | 0.00 | 90 | 1020.5 |
| 20260506170032 | 26 | 314 | 0.0 | 0.0 | 0.00 | 0.02 | 0.00 | 88 | 1020.3 |
| 20260506165027 | 26 | 349 | 0.0 | 0.0 | 0.00 | 0.02 | 0.00 | 88 | 1020.2 |
| 20260506164029 | 26 | 79 | 0.0 | 0.0 | 0.00 | 0.03 | 0.00 | 89 | 1019.8 |
| 20260506163028 | 27 | 40 | 0.0 | 0.0 | 0.00 | 0.03 | 0.00 | 89 | 1019.6 |
| 20260506162029 | 26 | 60 | 0.0 | 0.0 | 0.00 | 0.03 | 0.00 | 89 | 1019.6 |
| 20260506161945 | 26 | 5 | 0.0 | 0.0 | 0.00 | 0.03 | 0.00 | 89 | 1019.3 |
| 20260506160939 | 26 | 25 | 0.0 | 0.0 | 0.00 | 0.03 | 0.00 | 90 | 1019.2 |
| 20260506155028 | 26 | 73 | 0.0 | 0.0 | 0.00 | 0.03 | 0.00 | 90 | 1019.6 |
| 20260506154022 | 26 | 10 | 0.0 | 0.0 | 0.00 | 0.03 | 0.00 | 91 | 1019.2 |
| 20260506153500 | 25 | 320 | 0.0 | 0.0 | 0.00 | 0.03 | 0.00 | 90 | 1019.2 |
| 20260506152017 | 25 | 339 | 0.0 | 0.0 | 0.00 | 0.03 | 0.00 | 90 | 1019.2 |
| 20260506151503 | 26 | 352 | 0.0 | 0.0 | 0.00 | 0.03 | 0.00 | 91 | 1019.1 |
| 20260506150017 | 26 | 326 | 0.0 | 0.0 | 0.00 | 0.03 | 0.00 | 92 | 1019.1 |
| 20260506145017 | 25 | 326 | 0.0 | 0.0 | 0.00 | 0.03 | 0.00 | 92 | 1019.1 |
| 20260506144018 | 25 | 326 | 0.0 | 0.0 | 0.00 | 0.03 | 0.00 | 92 | 1019.0 |
| 20260506143018 | 25 | 323 | 0.0 | 0.0 | 0.00 | 0.03 | 0.00 | 92 | 1019.0 |
| 20260506142015 | 25 | 44 | 0.0 | 0.0 | 0.00 | 0.03 | 0.00 | 93 | 1018.8 |
| 20260506141016 | 24 | 303 | 0.0 | 0.0 | 0.00 | 0.03 | 0.00 | 93 | 1018.7 |
| 20260506140016 | 24 | 321 | 0.0 | 0.0 | 0.00 | 0.03 | 0.00 | 93 | 1018.8 |
| 20260506135015 | 24 | 314 | 0.0 | 0.0 | 0.00 | 0.03 | 0.00 | 93 | 1018.6 |
| 20260506134017 | 24 | 313 | 0.0 | 0.0 | 0.00 | 0.03 | 0.00 | 93 | 1018.7 |
| 20260506133012 | 24 | 297 | 0.0 | 0.0 | 0.00 | 0.03 | 0.00 | 93 | 1018.6 |
| 20260506132013 | 24 | 319 | 0.0 | 0.0 | 0.00 | 0.03 | 0.00 | 93 | 1018.3 |
| 20260506130957 | 24 | 319 | 0.0 | 0.0 | 0.00 | 0.03 | 0.00 | 94 | 1018.3 |
| 20260506125958 | 24 | 319 | 0.0 | 0.0 | 0.00 | 0.03 | 0.00 | 94 | 1018.2 |
| 20260506124958 | 24 | 319 | 0.0 | 0.0 | 0.00 | 0.03 | 0.00 | 94 | 1017.9 |
| 20260506123957 | 24 | 319 | 0.0 | 0.0 | 0.00 | 0.03 | 0.00 | 94 | 1017.7 |
| 20260506122957 | 24 | 319 | 0.0 | 0.0 | 0.00 | 0.03 | 0.00 | 94 | 1017.6 |
| 20260506121958 | 23 | 356 | 0.0 | 0.0 | 0.00 | 0.03 | 0.00 | 94 | 1017.6 |
| 20260506121443 | 23 | 319 | 0.0 | 0.0 | 0.00 | 0.03 | 0.00 | 94 | 1017.4 |
| 20260506115956 | 23 | 326 | 0.0 | 0.0 | 0.00 | 0.03 | 0.00 | 94 | 1017.6 |
| 20260506115416 | 24 | 300 | 0.0 | 0.0 | 0.00 | 0.03 | 0.00 | 94 | 1017.4 |
| 20260506113927 | 24 | 32 | 0.0 | 0.0 | 0.00 | 0.03 | 0.00 | 94 | 1017.2 |
| 20260506112929 | 24 | 310 | 0.0 | 0.0 | 0.00 | 0.03 | 0.00 | 94 | 1017.2 |
| 20260506111927 | 24 | 322 | 0.0 | 0.0 | 0.00 | 0.03 | 0.00 | 94 | 1017.2 |
| 20260506110929 | 24 | 46 | 0.0 | 0.0 | 0.00 | 0.03 | 0.00 | 94 | 1017.2 |
| 20260506105924 | 24 | 46 | 0.0 | 0.0 | 0.00 | 0.03 | 0.00 | 94 | 1017.1 |
| 20260506104925 | 24 | 115 | 0.0 | 0.0 | 0.00 | 0.04 | 0.00 | 94 | 1017.1 |
| 20260506103925 | 24 | 72 | 0.0 | 0.0 | 0.00 | 0.04 | 0.00 | 94 | 1017.1 |